Погода Кайластуй

Погода Кайластуй : погода сейчас, прогноз погоды и архив. Всё, что Вы хотите узнать о погоде Кайластуй!

Хотите узнать прогноз погоды Кайластуй? Тогда Вам сюда: Погода Кайластуй

Поиск расширенной информации на нашем сайте:

Другие новости

Новости СМИ2

Главная страница сайта

Новости сайта

03.07.2017

Напоминаем, что на нашем специализированном сайте Метеоцентр.Азия вы можете получить высокодетализированные автоматические прогнозы погоды по пунктам России, СНГ и мира в авиационном формате (включающие направление и скорость ветра, видимость, явления погоды, количество и форму облачности, нижнюю и верхнюю границу облачности).


Погода Кайластуй - сегодня

Время (UTC), дата Ветер
(°,м/с) 
Видим.   Явления Облачность Т
(°С)
Тd
(°С)
f(%) Тe
(°С)
Pmin
(гПа)
dP
(гПа)
Po
(мм)
O2
(г/м3)
Тmin Tmax R s Состояние
почвы
21 24.07.17 350 (С) 20000 м  местами туман поземный  4/0 средняя, верхняя 
[Ac lent|Cc]
+10.3 +5.5 72 +11  1012  0.2  711  275           
00 25.07.17 120 (ЮВ) 20000 м    1/0 верхняя 
[Cc]
+18.8 +8.4 51 +20  1010.1  0.1  711  267  +9.6        сухая 
03 25.07.17 190 (Ю) 20000 м    8/3 1000 м верхняя 
[Cu hum|Ci]
+25.3 +4.1 25 +25  1007.5  -1.2  710  261           
06 25.07.17 230 (ЮЗ) 20000 м    10/4 600 м средняя, верхняя 
[Cu med, cong|Ac cast|Cs]
+28.1 +0.2 16 +28  1005.2  -1.6  709  259           
09 25.07.17 210 (ЮЗ) 20000 м    10/5 600 м средняя 
[Cu med, cong|As trans]
+25.1 +5.7 29 +25  1004.7  -1  708  260           
12 25.07.17 330 (СЗ) 2{11}  20000 м    10/4 600 м средняя 
[Cu med, cong|As trans]
+21.3 +10.6 50 +24  1006.2  0.8  709  263    +28.1       
15 25.07.17 180 (Ю) 20000 м    10/0 средняя 
[As op]
+18 +9.9 59 +21  1006.6  -0.4  708  266           
18 25.07.17 350 (С) 20000 м    10/0 средняя 
[As op]
+18 +10.3 61 +22  1004.8  -1.6  707  265           
21 25.07.17 080 (В) 20000 м    10/0 средняя 
[As op]
+16.3 +10.9 70 +21  1004.6  -0.5  707  267           
00 26.07.17 050 (СВ) 20000 м    10/8 600 м средняя 
[Sc|As op]
+18.8 +9.5 55 +21  1004.2  0.2  707  265  +16.3        сухая 
03 26.07.17 070 (В) 20000 м    10/4 600 м кучево-дожд., средняя 
[Cb calv|As op]
+21.4 +9.8 48 +23  1003.4  -0.3  707  262           
06 26.07.17 050 (СВ) 20000 м    8/4 600 м кучево-дожд., средняя 
[Cb calv|Ac trans]
+25.1 +6.3 30 +25  1000.5  -2  705  259           
09 26.07.17 080 (В) 4{11}  20000 м    8/3 600 м кучево-дожд., средняя, верхняя 
[Cb calv|Ac cuf|Ci ing]
+25.3 +6.4 30 +25  1000.5  705  259           
12 26.07.17 110 (В) 20000 м    3/3 600 м верхняя 
[Sc diur, vesp|Ci fib]
+19.6 +12.5 64 +27  1003.2  1.5  706  263    +25.9       
15 26.07.17 100 (В) 20000 м    1/1 600 м 
[Sc diur, vesp]
+14.1 +10 76 +17  1006.6  708  269           
18 26.07.17 360 (С) 20000 м    3/0 верхняя 
[Ci sp]
+13 +9.7 80 +15  1007.1  0.3  708  270           
21 26.07.17 160 (Ю) 20000 м  местами туман поземный  3/0 средняя 
[Ac cast]
+10.2 +8.8 91 +12  1009.6  1.7  709  274           
00 27.07.17 070 (В) 20000 м    ясно 
+19.8 +11.9 60 +26  1008.8  1.3  710  265  +10.1        сухая 
03 27.07.17 260 (З) 20000 м    1/1 1000 м 
[Cu med, cong]
+25.5 +9.9 37 +28  1007.5  -0.2  710  260           
06 27.07.17 130 (ЮВ) 20000 м    6/5 600 м кучево-дожд., верхняя 
[Cb cap|Ci ing]
+26.9 +7.6 29 +27  1006.4  -0.8  710  259           
09 27.07.17 230 (ЮЗ) 3{10}  20000 м    8/6 600 м кучево-дожд., верхняя 
[Cb cap|Ci ing]
+26.3 +8 31 +26  1007.2  0.7  710  260           
12 27.07.17 220 (ЮЗ) 20000 м    3/1 600 м верхняя 
[Sc diur, vesp|Ci sp]
+21.6 +11 51 +25  1009.1  0.9  711  263    +29.4       
15 27.07.17 360 (С) 20000 м    ясно 
+14.2 +9.6 74 +17  1011.5  0.6  711  271           
18 27.07.17 010 (С) 20000 м    ясно 
+14.7 +7.6 62 +15  1012.2  0.8  712  271           
21 27.07.17 тихо ()   20000 м  местами туман поземный  ясно 
+12.2 +7.6 73 +12  1013.7  0.9  713  273           
Время (UTC), дата Ветер
(°,м/с) 
Видим.   Явления Облачность Т
(°С)
Тd
(°С)
f(%) Тe
(°С)
Pmin
(гПа)
dP
(гПа)
Po
(мм)
O2
(г/м3)
Тmin Tmax R s Состояние
почвы

Для получения пояснительной информации подведите курсор к названию столбца.

ПОГОДА Кайластуй - архив

Всё, что Вы хотите узнать о погоде Кайластуй - удобно и подробно!

Выберите нужную дату (начиная с 1 января 2015* года) и нажмите кнопку "Найти".
Будут отображены архивные сводки погоды по пункту Кайластуй, начиная с указанной даты.


Отображать данные в формате CSV (для использования в таблицах Excel)


Внимание! Наш архив погоды предназначен исключительно для личного некоммерческого использования в познавательных целях. Если Вам необходимы официальные справки о состоянии погоды (для производственных, юридических, коммерческих и т.п. целей), обращайтесь в органы Росгидромета.

*Примечание: данная дата относится к архиву по метеостанциям СССР (Россия, СНГ, Балтия).
Архив по метеостанциям Зарубежной Европы и Азии (кроме Китая) хранится 10 дней, по другим регионам земного шара (Китай, Африка, Америка, Австралия, Океания) - 1 день.

Кайластуй - район местоположения метеостанции


Название, широта, долгота, высота метеостанции:
Кайластуй 49.8°ш. 118.4°д. 550 м над ур. моря [Российская Федерация]

Дополнительная информация

В oтличие oт бoльшинства пoгoдных сайтoв мы публикуем пoдрoбную метеoинфoрмацию в детальнoм прoфессиoнальнoм фoрмате.

Характеристики температуры и влажнoсти вoздуха измеряются на высoте 2 м в тени вдали oт зданий и деревьев.
Скoрoсть ветра измеряется на высoте 10 м (на урoвне рoста челoвека скoрoсть ветра ниже в 1.5-2 раза). Если метеoстанция нахoдится в гoрoде или в лесу, тo скoрoсть ветра занижена на 2-4 м/с пo сравнению с oткрытым местoм. Скoрoсть ветра над акватoриями крупных рек и oзёр, а также на вершинах хoлмoв на 2-5 м/с выше, чем в oбычных услoвиях.
Атмoсфернoе давление в разных тoчках местнoсти мoжет значительнo oтличаться oт давления на метеoстанции, в зависимoсти oт услoвий рельефа (при пoдъёме на 10 м давление пoнижается примернo на 1 мм рт.ст.).